[[{"header":{"parameterUnit":"m.s-1","parameterCategory":1,"la1":30.2991,"la2":30.254,"lo1":-89.0895,"lo2":-89.0444,"dy":0.0017,"dx":0.0017,"nx":28,"ny":28,"refTime":"2025-04-08T09:00:00:Z","depth":0,"parameterNumber":2,"parameterNumberName":"U-component_of_WINDS"},"data":[0,0,0,0,0,0,0,0,0,0,0,0,0,0,0,0,0,0,0,0,0,0,0,0,0,0,0,0,0,0,0,0,0,0,0,0,0,0,0,0,0,0,0,0,0,0,0,0,0,0,0,0,0,0,0,0,0,0,2.196,2.196,0,2.1941,2.194,2.194,2.1907,2.1906,2.1905,2.1905,2.1885,2.1885,2.1885,0,0,0,0,0,0,0,0,0,0,0,0,0,2.1968,2.1968,2.196,2.196,2.1959,2.1941,2.194,2.194,2.1907,2.1906,2.1905,2.1904,2.1885,2.1885,2.1885,0,0,0,0,0,0,0,0,0,0,0,0,0,2.1958,2.1968,2.196,2.1941,2.1939,2.1941,2.194,2.194,2.1907,2.1906,2.1905,2.1904,2.1885,2.1885,2.1885,2.1905,0,0,2.1886,2.1886,0,0,0,0,0,0,0,0,2.1959,2.1958,2.1944,2.1942,2.194,2.1925,2.1936,2.1928,2.1907,2.1919,2.1905,2.1904,2.1899,2.1898,2.1896,2.1904,2.1903,2.1886,2.1886,2.1886,2.1886,0,0,0,0,0,0,0,2.196,2.1959,2.1952,2.1943,2.1941,2.1933,2.193,2.1934,2.1915,2.1918,2.1915,2.1913,2.1898,2.1896,2.1896,2.1903,2.1886,2.1886,2.1886,2.1886,2.1923,2.1924,0,0,0,0,0,0,2.1963,2.1959,2.1953,2.1952,2.1947,2.1933,2.1931,2.1931,2.1914,2.1911,2.1914,2.1912,2.1897,2.1896,2.1895,2.1915,2.1886,2.1886,2.1886,2.1922,2.1924,2.1925,0,0,0,0,0,0,2.1963,2.1963,2.1954,2.1955,2.1953,2.1934,2.1935,2.1931,2.1929,2.1912,2.1908,2.1916,2.1896,2.1895,2.1902,2.1914,2.1886,2.1886,2.1921,2.1923,2.1924,2.1956,0,0,0,0,0,0,2.1964,2.1963,2.197,2.1955,2.1953,2.1961,2.1935,2.1931,2.1929,2.1926,2.1913,2.191,2.1895,2.1902,2.1902,2.1914,2.1886,2.192,2.1922,2.1924,2.1954,2.1959,2.1963,0,0,0,0,0,2.1964,2.1981,2.1971,2.197,2.1962,2.1962,2.1961,2.1944,2.1931,2.1937,2.1926,2.191,2.1913,2.1903,2.1903,2.1915,2.1919,2.1921,2.1924,2.1952,2.1958,2.1963,0,0,0,0,0,0,2.1998,2.1978,2.1967,2.1979,2.1973,2.1956,2.1964,2.195,2.1947,2.1944,2.1924,2.1921,2.193,2.1924,2.1913,2.1932,2.1914,2.1916,2.1936,2.1941,2.1945,2.1946,2.1886,0,0,0,0,0,2.2007,2.2009,2.1992,2.2004,2.2001,2.1984,2.1983,2.197,2.1963,2.196,2.1949,2.1942,2.1941,2.1941,2.1939,2.1954,2.1949,2.1962,2.1966,2.1969,2.1971,2.1976,2.1981,2.1932,2.1932,2.1932,0,0,2.2025,2.2015,2.2017,2.201,2.2004,2.2005,2.1981,2.1985,2.1986,2.196,2.1966,2.1958,2.1949,2.1959,2.1963,2.1954,2.1984,2.1972,2.1975,2.1975,2.1979,2.1984,2.1988,2.1933,2.1933,2.1933,0,0,2.2059,2.2052,2.206,2.2054,2.2044,2.2032,2.2034,2.202,2.2014,2.2019,2.1999,2.2001,2.2,2.1994,2.1991,2.2022,2.2006,2.2022,2.2044,2.2049,2.2053,2.2056,2.2066,2.207,2.2024,2.2024,2.2024,0,2.2082,2.2084,2.2067,2.2071,2.2068,2.2045,2.2053,2.2048,2.2038,2.2036,2.2026,2.2024,2.2016,2.2024,2.2032,2.2031,2.2032,2.2023,2.2054,2.2057,2.206,2.2069,2.2072,2.2026,2.2026,2.2026,2.2026,0,2.2113,2.2115,2.2123,2.2114,2.2112,2.2119,2.2101,2.2102,2.209,2.2079,2.2084,2.2074,2.2069,2.2071,2.2059,2.2077,2.2071,2.2058,2.2039,2.2067,2.2074,2.2078,2.2029,2.2028,2.2027,2.2027,0,0,2.2166,2.2147,2.215,2.2145,2.2132,2.2133,2.2138,2.2133,2.2133,2.2128,2.213,2.2131,2.2118,2.2114,2.2102,2.2107,2.213,2.2093,2.2092,2.2098,2.2147,2.2155,2.216,2.2121,2.2121,2.2122,2.2147,0,2.2196,2.2203,2.2187,2.2198,2.2198,2.2177,2.2181,2.2174,2.2164,2.2163,2.2152,2.2152,2.2136,2.2134,2.2138,2.2126,2.2139,2.2125,2.2122,2.2122,2.2123,2.2164,2.2173,2.2198,2.215,2.2151,2.2151,0,2.2231,2.2226,2.2237,2.2222,2.2222,2.2226,2.222,2.222,2.2211,2.2203,2.2199,2.2184,2.2188,2.2171,2.2175,2.2165,2.2164,2.2158,2.2158,2.2156,2.2137,2.2161,2.2205,2.2208,2.2156,2.2156,2.2155,0,2.2266,2.2263,2.2268,2.2265,2.2249,2.2252,2.2245,2.2235,2.2233,2.2228,2.2226,2.2222,2.2219,2.2216,2.22,2.2189,2.2205,2.2187,2.2198,2.2198,2.22,2.22,2.2243,2.2203,2.2203,2.2203,2.2203,0,2.2299,2.2306,2.2283,2.2287,2.2294,2.2276,2.2283,2.2274,2.2266,2.2266,2.2248,2.2249,2.223,2.2228,2.2217,2.222,2.222,2.2213,2.2209,2.2214,2.2214,2.2211,2.2208,2.2204,2.2203,2.2203,2.2203,0,2.2339,2.2324,2.2328,2.2313,2.2309,2.2315,2.2301,2.2303,2.2293,2.2294,2.2293,2.2276,2.2274,2.2259,2.2253,2.2245,2.2253,2.2247,2.2255,2.2253,2.2263,2.2262,2.2304,2.2308,2.2267,2.2267,2.2268,0,2.236,2.2365,2.235,2.2349,2.2343,2.2342,2.2339,2.2322,2.232,2.231,2.2313,2.2309,2.2305,2.2302,2.2289,2.2285,2.2277,2.2292,2.2276,2.228,2.2275,2.2274,2.2274,2.2295,2.2296,2.2296,2.2296,0,2.2399,2.2391,2.2388,2.2382,2.238,2.2375,2.2368,2.2369,2.2349,2.2348,2.2345,2.2342,2.2336,2.2332,2.2325,2.2318,2.2303,2.2302,2.2304,2.2307,2.2311,2.2307,2.2263,2.23,2.23,2.23,2.23,2.2299,2.2428,2.2431,2.242,2.2417,2.2411,2.2405,2.2406,2.2395,2.2393,2.2386,2.2376,2.2374,2.2364,2.2354,2.2348,2.2346,2.2338,2.2341,2.2341,2.2342,2.2343,2.2313,2.2345,2.2345,2.2344,2.2344,2.2344,0,2.2464,2.2456,2.2454,2.2445,2.2443,2.243,2.2422,2.2421,2.242,2.2412,2.2408,2.2404,2.24,2.2387,2.2381,2.2382,2.2375,2.2381,2.238,2.2378,2.2352,2.235,2.2387,2.2387,2.2387,2.2387,2.2387,2.2387,2.2482,2.2486,2.2477,2.2476,2.2469,2.2466,2.2463,2.2457,2.2451,2.2447,2.2444,2.2435,2.2425,2.2418,2.2414,2.241,2.2408,2.2415,2.2409,2.2384,2.238,2.2376,2.2374,2.2416,2.2416,2.2435,2.2436,2.2436]},{"header":{"parameterUnit":"m.s-1","parameterCategory":1,"la1":30.2991,"la2":30.254,"lo1":-89.0895,"lo2":-89.0444,"dy":0.0017,"dx":0.0017,"nx":28,"ny":28,"refTime":"2025-04-08T09:00:00:Z","depth":0,"parameterNumber":3,"parameterNumberName":"V-component_of_WINDS"},"data":[0,0,0,0,0,0,0,0,0,0,0,0,0,0,0,0,0,0,0,0,0,0,0,0,0,0,0,0,0,0,0,0,0,0,0,0,0,0,0,0,0,0,0,0,0,0,0,0,0,0,0,0,0,0,0,0,0,0,-4.0223,-4.0225,0,-4.0473,-4.0475,-4.0478,-4.0476,-4.0473,-4.0469,-4.0466,-4.0723,-4.0732,-4.0742,0,0,0,0,0,0,0,0,0,0,0,0,0,-3.9745,-3.9754,-4.0222,-4.0226,-4.0229,-4.0472,-4.0475,-4.0479,-4.0477,-4.0472,-4.0468,-4.0465,-4.072,-4.0731,-4.0743,0,0,0,0,0,0,0,0,0,0,0,0,0,-3.9969,-3.9757,-4.0222,-4.0257,-4.0262,-4.0471,-4.0476,-4.048,-4.0477,-4.0472,-4.0467,-4.0463,-4.0716,-4.073,-4.0745,-4.0936,0,0,-4.079,-4.0797,0,0,0,0,0,0,0,0,-3.9957,-3.9987,-4.0249,-4.0255,-4.0262,-4.0438,-4.0401,-4.0633,-4.0479,-4.0396,-4.0466,-4.046,-4.0632,-4.0653,-4.0711,-4.0948,-4.0959,-4.0791,-4.08,-4.0807,-4.0811,0,0,0,0,0,0,0,-3.9941,-3.9976,-4.0321,-4.0252,-4.026,-4.0261,-4.0287,-4.0445,-4.0539,-4.0403,-4.0403,-4.0433,-4.0635,-4.0697,-4.0717,-4.0962,-4.0791,-4.0804,-4.0813,-4.0819,-4.137,-4.1375,0,0,0,0,0,0,-3.9918,-3.9963,-4.0313,-4.0329,-4.0094,-4.0273,-4.0303,-4.0386,-4.0537,-4.0555,-4.0437,-4.0432,-4.0674,-4.07,-4.0726,-4.0961,-4.0807,-4.0821,-4.0829,-4.1364,-4.1371,-4.1377,0,0,0,0,0,0,-3.9908,-3.9949,-4.0303,-4.0146,-4.0191,-4.0287,-4.0381,-4.0394,-4.0456,-4.0563,-4.0579,-4.0483,-4.0671,-4.0705,-4.0884,-4.097,-4.0827,-4.0841,-4.1357,-4.1366,-4.1374,-4.1431,0,0,0,0,0,0,-3.9894,-3.9946,-4.0019,-4.0148,-4.02,-4.0457,-4.0386,-4.0402,-4.0482,-4.0478,-4.0611,-4.0628,-4.067,-4.0862,-4.0899,-4.0988,-4.0852,-4.135,-4.1361,-4.1371,-4.1422,-4.1441,-4.1457,0,0,0,0,0,-3.9877,-4.0025,-4.0023,-4.0065,-4.0293,-4.0462,-4.0491,-4.0536,-4.0489,-4.0563,-4.0632,-4.0624,-4.0954,-4.088,-4.0922,-4.1016,-4.1345,-4.1358,-4.1371,-4.1414,-4.1437,-4.1456,0,0,0,0,0,0,-3.9903,-4.0042,-4.0041,-4.0235,-4.0337,-4.0461,-4.0556,-4.0559,-4.0676,-4.0667,-4.0718,-4.0748,-4.0927,-4.0989,-4.0904,-4.121,-4.1144,-4.1166,-4.1163,-4.1185,-4.1202,-4.1184,-4.0865,0,0,0,0,0,-3.9931,-4.0056,-4.0171,-4.0331,-4.0382,-4.046,-4.0535,-4.0562,-4.0669,-4.0712,-4.0793,-4.0898,-4.1026,-4.1109,-4.1232,-4.1431,-4.1461,-4.1517,-4.1534,-4.1547,-4.1566,-4.1677,-4.1704,-4.1419,-4.1419,-4.1419,0,0,-3.9991,-4.0083,-4.0158,-4.0339,-4.042,-4.0549,-4.0497,-4.0635,-4.0731,-4.0733,-4.0907,-4.097,-4.1091,-4.1281,-4.1368,-4.1338,-4.1651,-4.1564,-4.1574,-4.1585,-4.1693,-4.172,-4.1744,-4.1428,-4.1427,-4.1425,0,0,-4.0166,-4.0247,-4.039,-4.0473,-4.0598,-4.0649,-4.0683,-4.0808,-4.0851,-4.1026,-4.103,-4.1146,-4.1364,-4.145,-4.1522,-4.1731,-4.1729,-4.177,-4.186,-4.1968,-4.1991,-4.2011,-4.2087,-4.2113,-4.1788,-4.1788,-4.1788,0,-4.0225,-4.0419,-4.0463,-4.0603,-4.0683,-4.069,-4.0836,-4.0914,-4.1072,-4.1128,-4.1091,-4.1367,-4.1448,-4.1659,-4.171,-4.1768,-4.181,-4.1755,-4.1984,-4.2004,-4.2024,-4.2097,-4.2125,-4.1792,-4.1792,-4.1791,-4.1791,0,-4.0486,-4.062,-4.0721,-4.0874,-4.0965,-4.1106,-4.1173,-4.126,-4.1278,-4.1334,-4.1513,-4.1611,-4.1755,-4.1807,-4.1825,-4.2021,-4.1999,-4.1973,-4.1907,-4.2055,-4.2124,-4.2153,-4.1798,-4.1797,-4.1795,-4.1794,0,0,-4.0685,-4.0861,-4.0897,-4.0967,-4.1105,-4.1211,-4.1353,-4.1494,-4.1568,-4.1677,-4.1799,-4.1984,-4.1961,-4.2043,-4.2072,-4.2166,-4.2328,-4.2129,-4.2133,-4.2164,-4.2551,-4.2571,-4.2602,-4.2326,-4.2332,-4.2336,-4.2542,0,-4.0875,-4.1128,-4.1173,-4.1394,-4.152,-4.1529,-4.1654,-4.1752,-4.1808,-4.1923,-4.1985,-4.2116,-4.2075,-4.2125,-4.2219,-4.2288,-4.2406,-4.2274,-4.2441,-4.2447,-4.2412,-4.2639,-4.266,-4.2849,-4.2569,-4.2573,-4.2577,0,-4.1132,-4.1248,-4.1482,-4.1604,-4.1659,-4.177,-4.1903,-4.2013,-4.2125,-4.2159,-4.2251,-4.2269,-4.2419,-4.2346,-4.2553,-4.2462,-4.2533,-4.2578,-4.2586,-4.2605,-4.2521,-4.2665,-4.291,-4.2939,-4.262,-4.2616,-4.2613,0,-4.1255,-4.147,-4.1638,-4.1698,-4.1844,-4.1922,-4.1987,-4.2095,-4.2177,-4.2293,-4.2347,-4.248,-4.2553,-4.2655,-4.2709,-4.265,-4.2913,-4.2844,-4.2947,-4.2945,-4.3002,-4.2998,-4.3264,-4.3046,-4.3045,-4.3045,-4.3044,0,-4.1465,-4.1608,-4.1696,-4.1799,-4.196,-4.201,-4.2169,-4.2232,-4.2328,-4.2445,-4.246,-4.2569,-4.2633,-4.2752,-4.2795,-4.2961,-4.2993,-4.3026,-4.3036,-4.3026,-4.3022,-4.3074,-4.3063,-4.3052,-4.3051,-4.3049,-4.3048,0,-4.163,-4.1695,-4.1879,-4.2003,-4.2037,-4.2151,-4.2257,-4.2359,-4.2414,-4.2562,-4.2599,-4.2687,-4.2828,-4.2891,-4.3065,-4.3094,-4.3284,-4.3284,-4.3246,-4.325,-4.3349,-4.334,-4.366,-4.3705,-4.3454,-4.3457,-4.3459,0,-4.176,-4.1871,-4.2006,-4.2086,-4.2153,-4.228,-4.2364,-4.2418,-4.2505,-4.2642,-4.2727,-4.2868,-4.2985,-4.321,-4.3289,-4.3423,-4.3427,-4.353,-4.3447,-4.3434,-4.3431,-4.3424,-4.3436,-4.3545,-4.3548,-4.355,-4.3551,0,-4.1985,-4.2011,-4.2132,-4.2264,-4.2364,-4.2471,-4.2575,-4.264,-4.271,-4.2807,-4.2951,-4.3041,-4.3219,-4.336,-4.3499,-4.3566,-4.3572,-4.3576,-4.3608,-4.3599,-4.3573,-4.359,-4.3289,-4.3569,-4.3567,-4.3566,-4.3565,-4.3564,-4.2138,-4.2237,-4.2349,-4.2483,-4.2567,-4.2665,-4.2767,-4.2835,-4.2956,-4.3105,-4.3129,-4.3284,-4.3394,-4.3581,-4.3654,-4.3776,-4.3751,-4.3796,-4.3808,-4.3818,-4.3825,-4.3552,-4.3801,-4.3801,-4.38,-4.38,-4.38,0,-4.2365,-4.2437,-4.256,-4.2706,-4.2812,-4.2806,-4.2922,-4.3011,-4.3147,-4.3249,-4.3364,-4.353,-4.3667,-4.3757,-4.3896,-4.3977,-4.3983,-4.4012,-4.4007,-4.4023,-4.3838,-4.3798,-4.4004,-4.4004,-4.4004,-4.4004,-4.4004,-4.4004,-4.2495,-4.2663,-4.2703,-4.2914,-4.2985,-4.3136,-4.3203,-4.3294,-4.3376,-4.3562,-4.3676,-4.3733,-4.3832,-4.3978,-4.4104,-4.4127,-4.4178,-4.4208,-4.4231,-4.4057,-4.4036,-4.4015,-4.3978,-4.4219,-4.4219,-4.4406,-4.4407,-4.4409]}]]